When you browse on this site, cookies collect data to enhance your experience and personalize the content and advertising you see.
Visit our Privacy Policy to learn more. By continuing to use the site, you agree to this use of cookies and data.
  • In Deutschland
  • Länderverzeichnis
  • Für 7 Tage
  • Wassertemperatur
  • Wetterkarte
  • Widgets
  • user-avatar
    Anmelden

    Stündliche Wetter Bielefeld

    Heute, 15 Oktober, Dienstag

    Zeit Temperatur Niederschläge Wind Luftdruck Luftfeuchtigkeit
    00:00 +17°C° 0 mm 3 m/S 746 mmHg 78%
    01:00 +17°C° 0 mm 3 m/S 745 mmHg 80%
    02:00 +16°C° 0 mm 3 m/S 745 mmHg 81%
    03:00 +16°C° 0 mm 3 m/S 745 mmHg 82%
    04:00 +15°C° 0 mm 2 m/S 744 mmHg 82%
    05:00 +15°C° 0 mm 2 m/S 744 mmHg 84%
    06:00 +15°C° 0 mm 2 m/S 744 mmHg 86%
    07:00 +15°C° 0 mm 2 m/S 744 mmHg 88%
    08:00 +16°C° 0 mm 2 m/S 744 mmHg 83%
    09:00 +18°C° 0 mm 2 m/S 744 mmHg 77%
    10:00 +20°C° 0 mm 2 m/S 744 mmHg 72%
    11:00 +21°C° 0 mm 2 m/S 744 mmHg 68%
    12:00 +22°C° 0 mm 3 m/S 744 mmHg 64%
    13:00 +24°C° 0 mm 3 m/S 744 mmHg 61%
    14:00 +22°C° 0 mm 3 m/S 743 mmHg 65%
    15:00 +21°C° 0 mm 2 m/S 743 mmHg 69%
    16:00 +20°C° 0 mm 2 m/S 743 mmHg 73%
    17:00 +19°C° 0.5 mm 2 m/S 743 mmHg 79%
    18:00 +18°C° 0.5 mm 2 m/S 743 mmHg 85%
    19:00 +16°C° 0.5 mm 2 m/S 743 mmHg 91%
    20:00 +15°C° 5.3 mm 4 m/S 743 mmHg 93%
    21:00 +14°C° 5.3 mm 5 m/S 743 mmHg 94%
    22:00 +13°C° 5.3 mm 6 m/S 744 mmHg 96%
    23:00 +12°C° 4.3 mm 7 m/S 744 mmHg 95%

    Morgen, 16 Oktober, Mittwoch

    Zeit Temperatur Niederschläge Wind Luftdruck Luftfeuchtigkeit
    00:00 +11°C° 4.3 mm 7 m/S 744 mmHg 94%
    01:00 +11°C° 4.3 mm 7 m/S 745 mmHg 93%
    02:00 +11°C° 1 mm 6 m/S 745 mmHg 92%
    03:00 +10°C° 1 mm 5 m/S 745 mmHg 91%
    04:00 +10°C° 1 mm 5 m/S 745 mmHg 91%
    05:00 +10°C° 0.7 mm 5 m/S 745 mmHg 90%
    06:00 +10°C° 0.7 mm 5 m/S 745 mmHg 90%
    07:00 +10°C° 0.7 mm 5 m/S 745 mmHg 90%
    08:00 +10°C° 0.2 mm 6 m/S 746 mmHg 88%
    09:00 +10°C° 0.2 mm 6 m/S 746 mmHg 86%
    10:00 +10°C° 0.2 mm 6 m/S 746 mmHg 84%
    11:00 +11°C° 0 mm 6 m/S 746 mmHg 81%
    12:00 +13°C° 0 mm 6 m/S 746 mmHg 78%
    13:00 +14°C° 0 mm 7 m/S 746 mmHg 75%
    14:00 +14°C° 0 mm 6 m/S 746 mmHg 76%
    15:00 +14°C° 0 mm 6 m/S 746 mmHg 78%
    16:00 +14°C° 0 mm 5 m/S 746 mmHg 79%
    17:00 +13°C° 0 mm 5 m/S 746 mmHg 81%
    18:00 +13°C° 0 mm 5 m/S 746 mmHg 83%
    19:00 +13°C° 0 mm 5 m/S 747 mmHg 85%
    20:00 +13°C° 0.1 mm 5 m/S 747 mmHg 83%
    21:00 +13°C° 0.1 mm 4 m/S 747 mmHg 82%
    22:00 +13°C° 0.1 mm 4 m/S 747 mmHg 81%
    23:00 +13°C° 0 mm 4 m/S 747 mmHg 81%

    übermorgen, 17 Oktober, Donnerstag

    Zeit Temperatur Niederschläge Wind Luftdruck Luftfeuchtigkeit
    00:00 +13°C° 0 mm 4 m/S 747 mmHg 80%
    01:00 +13°C° 0 mm 3 m/S 747 mmHg 79%
    02:00 +13°C° 0.3 mm 4 m/S 747 mmHg 82%
    03:00 +12°C° 0.3 mm 4 m/S 747 mmHg 86%
    04:00 +12°C° 0.3 mm 5 m/S 746 mmHg 89%
    05:00 +12°C° 0.1 mm 5 m/S 747 mmHg 89%
    06:00 +12°C° 0.1 mm 4 m/S 747 mmHg 90%
    07:00 +12°C° 0.1 mm 4 m/S 747 mmHg 90%
    08:00 +12°C° 0.1 mm 4 m/S 747 mmHg 90%
    09:00 +13°C° 0.1 mm 4 m/S 747 mmHg 90%
    10:00 +13°C° 0.1 mm 4 m/S 748 mmHg 89%
    11:00 +13°C° 0.2 mm 4 m/S 748 mmHg 87%
    12:00 +14°C° 0.2 mm 5 m/S 748 mmHg 85%
    13:00 +15°C° 0.2 mm 5 m/S 749 mmHg 83%
    14:00 +14°C° 0.1 mm 4 m/S 749 mmHg 81%
    15:00 +14°C° 0.1 mm 3 m/S 749 mmHg 80%
    16:00 +15°C° 0.1 mm 2 m/S 749 mmHg 78%
    17:00 +14°C° 0 mm 2 m/S 749 mmHg 79%
    18:00 +14°C° 0 mm 2 m/S 750 mmHg 80%
    19:00 +13°C° 0 mm 2 m/S 750 mmHg 81%
    20:00 +12°C° 0 mm 2 m/S 750 mmHg 82%
    21:00 +11°C° 0 mm 3 m/S 750 mmHg 82%
    22:00 +10°C° 0 mm 3 m/S 751 mmHg 82%
    23:00 +9°C° 0 mm 3 m/S 750 mmHg 84%

    18 Oktober, Freitag

    Zeit Temperatur Niederschläge Wind Luftdruck Luftfeuchtigkeit
    00:00 +9°C° 0 mm 2 m/S 750 mmHg 86%
    01:00 +8°C° 0 mm 2 m/S 750 mmHg 88%
    02:00 +8°C° 0 mm 2 m/S 750 mmHg 89%
    03:00 +8°C° 0 mm 2 m/S 750 mmHg 89%
    04:00 +8°C° 0 mm 2 m/S 750 mmHg 89%
    05:00 +9°C° 0.1 mm 2 m/S 749 mmHg 90%
    06:00 +9°C° 0.1 mm 3 m/S 749 mmHg 91%
    07:00 +10°C° 0.1 mm 3 m/S 749 mmHg 92%
    08:00 +11°C° 0.4 mm 4 m/S 749 mmHg 89%
    09:00 +13°C° 0.4 mm 5 m/S 749 mmHg 87%
    10:00 +14°C° 0.4 mm 6 m/S 749 mmHg 84%
    11:00 +15°C° 0.4 mm 6 m/S 749 mmHg 82%
    12:00 +15°C° 0.4 mm 6 m/S 749 mmHg 79%
    13:00 +15°C° 0.4 mm 6 m/S 749 mmHg 77%
    14:00 +15°C° 0.1 mm 5 m/S 749 mmHg 76%
    15:00 +15°C° 0.1 mm 4 m/S 749 mmHg 76%
    16:00 +14°C° 0.1 mm 3 m/S 749 mmHg 75%
    17:00 +13°C° 0 mm 3 m/S 749 mmHg 78%
    18:00 +12°C° 0 mm 3 m/S 749 mmHg 81%
    19:00 +10°C° 0 mm 3 m/S 749 mmHg 84%
    20:00 +10°C° 0 mm 3 m/S 750 mmHg 85%
    21:00 +10°C° 0 mm 3 m/S 750 mmHg 86%
    22:00 +9°C° 0 mm 3 m/S 750 mmHg 87%
    23:00 +9°C° 0 mm 3 m/S 750 mmHg 88%

    19 Oktober, Samstag

    Zeit Temperatur Niederschläge Wind Luftdruck Luftfeuchtigkeit
    00:00 +9°C° 0 mm 3 m/S 750 mmHg 88%
    01:00 +9°C° 0 mm 3 m/S 749 mmHg 89%
    02:00 +9°C° 0 mm 3 m/S 749 mmHg 89%
    03:00 +9°C° 0 mm 3 m/S 749 mmHg 89%
    04:00 +9°C° 0 mm 3 m/S 749 mmHg 90%
    05:00 +9°C° 0 mm 3 m/S 749 mmHg 89%
    06:00 +9°C° 0 mm 3 m/S 749 mmHg 89%
    07:00 +9°C° 0 mm 3 m/S 749 mmHg 89%
    08:00 +10°C° 0 mm 4 m/S 748 mmHg 85%
    09:00 +12°C° 0 mm 4 m/S 748 mmHg 80%
    10:00 +13°C° 0 mm 4 m/S 748 mmHg 76%
    11:00 +14°C° 0 mm 4 m/S 748 mmHg 73%
    12:00 +15°C° 0 mm 4 m/S 748 mmHg 69%
    13:00 +17°C° 0 mm 4 m/S 747 mmHg 66%
    14:00 +16°C° 0 mm 3 m/S 747 mmHg 70%
    15:00 +16°C° 0 mm 3 m/S 747 mmHg 73%
    16:00 +16°C° 0 mm 2 m/S 746 mmHg 77%
    17:00 +15°C° 0 mm 2 m/S 746 mmHg 80%
    18:00 +13°C° 0 mm 3 m/S 745 mmHg 83%
    19:00 +12°C° 0 mm 3 m/S 745 mmHg 86%
    20:00 +12°C° 0.4 mm 3 m/S 745 mmHg 87%
    21:00 +12°C° 0.4 mm 3 m/S 744 mmHg 89%
    22:00 +12°C° 0.4 mm 3 m/S 744 mmHg 91%
    23:00 +12°C° 0.4 mm 3 m/S 743 mmHg 90%

    20 Oktober, Sonntag

    Zeit Temperatur Niederschläge Wind Luftdruck Luftfeuchtigkeit
    00:00 +13°C° 0.4 mm 3 m/S 743 mmHg 89%
    01:00 +13°C° 0.4 mm 4 m/S 742 mmHg 89%
    02:00 +12°C° 0.4 mm 4 m/S 742 mmHg 90%
    03:00 +12°C° 0.4 mm 3 m/S 742 mmHg 92%
    04:00 +12°C° 0.4 mm 3 m/S 741 mmHg 93%
    05:00 +11°C° 0 mm 3 m/S 742 mmHg 92%
    06:00 +11°C° 0 mm 4 m/S 742 mmHg 92%
    07:00 +10°C° 0 mm 4 m/S 742 mmHg 91%
    08:00 +11°C° 0 mm 4 m/S 742 mmHg 88%
    09:00 +12°C° 0 mm 5 m/S 743 mmHg 86%
    10:00 +12°C° 0 mm 5 m/S 743 mmHg 83%
    11:00 +13°C° 0 mm 6 m/S 743 mmHg 79%
    12:00 +13°C° 0 mm 6 m/S 743 mmHg 75%
    13:00 +14°C° 0 mm 6 m/S 743 mmHg 71%
    14:00 +14°C° 0 mm 5 m/S 744 mmHg 71%
    15:00 +13°C° 0 mm 4 m/S 744 mmHg 71%
    16:00 +13°C° 0 mm 3 m/S 744 mmHg 71%
    17:00 +12°C° 0 mm 3 m/S 744 mmHg 74%
    18:00 +11°C° 0 mm 3 m/S 745 mmHg 76%
    19:00 +10°C° 0 mm 3 m/S 745 mmHg 79%
    20:00 +9°C° 0 mm 3 m/S 746 mmHg 81%
    21:00 +8°C° 0 mm 4 m/S 746 mmHg 82%
    22:00 +8°C° 0 mm 4 m/S 747 mmHg 84%
    23:00 +7°C° 0 mm 4 m/S 747 mmHg 85%
    Mehr zeigen